Weather History for Palma de Mallorca, Spain

Change the Weather History Date:

Wednesday, October 3, 2012

  Actual Average Record
Temperature  
Mean Temperature 67 °F -  
Max Temperature 77 °F 72 °F 89 °F (2004)
Min Temperature 57 °F 54 °F 51 °F (1996)
Cooling Degree Days 2    
Growing Degree Days 17 (Base 50)    
Moisture  
Dew Point 62 °F    
Average Humidity 79    
Maximum Humidity 100    
Minimum Humidity 46    
Precipitation  
Precipitation 0.00 in 0.08 in - ()
Sea Level Pressure  
Sea Level Pressure 30.13 in    
Wind  
Wind Speed 3 mph ()    
Max Wind Speed 12 mph    
Max Gust Speed -    
Visibility 6.7 miles    
Events Fog    
Averages and records for this station are not official NWS values.
T = Trace of Precipitation, MM = Missing Value Source: Averaged Metar Reports

Daily Weather History Graph

Daily Weather History Graph

Search for Another Location

Airport:

Trip Planner

Search our weather history database for the weather conditions in past years. The results will help you decide how hot, cold, wet, or windy it might be!

Date:

Astronomy

Oct. 03, 2012 Rise Set
Actual Time 7:47 AM CEST 7:27 PM CEST
Civil Twilight 7:20 AM CEST 7:54 PM CEST
Nautical Twilight 6:49 AM CEST 8:25 PM CEST
Astronomical Twilight 6:17 AM CEST 8:57 PM CEST
Moon 9:10 PM CEST (10/3) 10:55 AM CEST (10/3)
Length of Visible Light 12h 34m
Length of Day
11h 40m
Waning Gibbous, 90% of the Moon is Illuminated
Oct 3
Waning Gibbous
Oct 8
Last Quarter
Oct 15
New
Oct 22
First Quarter
Oct 29
Full

Hourly Weather History & Observations

Time (CEST) Temp. Dew Point Humidity Pressure Visibility Wind Dir Wind Speed Gust Speed Precip Events Conditions
12:00 AM 66.2 °F 62.6 °F 88% 30.15 in 6.2 mi Calm Calm - N/A   Partly Cloudy
12:30 AM 66.2 °F 62.6 °F 88% 30.15 in 6.2 mi Calm Calm - N/A   Partly Cloudy
1:00 AM 66.2 °F 62.6 °F 88% 30.15 in 6.2 mi North 1.2 mph - N/A   Partly Cloudy
1:30 AM 66.2 °F 62.6 °F 88% 30.15 in 6.2 mi North 1.2 mph - N/A   Partly Cloudy
2:00 AM 64 °F 59 °F 79% 30.16 in 12 mi Calm Calm - -   Scattered Clouds
2:00 AM 64.4 °F 62.6 °F 94% 30.15 in 6.2 mi Calm Calm - N/A   Partly Cloudy
2:30 AM 64.4 °F 62.6 °F 94% 30.15 in 6.2 mi Calm Calm - N/A   Partly Cloudy
3:00 AM 64.4 °F 62.6 °F 94% 30.15 in 6.2 mi Variable 1.2 mph - N/A   Partly Cloudy
3:30 AM 64.4 °F 62.6 °F 94% 30.12 in 6.2 mi Calm Calm - N/A   Partly Cloudy
4:00 AM 64.4 °F 62.6 °F 94% 30.12 in 6.2 mi NNE 2.3 mph - N/A   Partly Cloudy
4:30 AM 62.6 °F 60.8 °F 94% 30.12 in 6.2 mi Variable 1.2 mph - N/A   Partly Cloudy
5:00 AM 62.6 °F 60.8 °F 94% 30.12 in 6.2 mi Calm Calm - N/A   Partly Cloudy
5:30 AM 60.8 °F 59.0 °F 94% 30.12 in 6.2 mi Calm Calm - N/A   Partly Cloudy
6:00 AM 60.8 °F 59.0 °F 94% 30.12 in 6.2 mi ENE 1.2 mph - N/A   Partly Cloudy
6:30 AM 59.0 °F 59.0 °F 100% 30.12 in 6.2 mi Variable 1.2 mph - N/A Fog Patches of Fog
7:00 AM 60.8 °F 59.0 °F 94% 30.12 in 6.2 mi NE 1.2 mph - N/A Fog Patches of Fog
7:30 AM 59.0 °F 59.0 °F 100% 30.12 in 5.6 mi Variable 2.3 mph - N/A Fog Patches of Fog
8:00 AM 61 °F 58 °F 88% 30.15 in 7 mi Calm Calm - -   Scattered Clouds
8:00 AM 60.8 °F 59.0 °F 94% 30.12 in 5.6 mi East 1.2 mph - N/A Fog Patches of Fog
8:30 AM 62.6 °F 60.8 °F 94% 30.15 in 6.2 mi Calm Calm - N/A   Partly Cloudy
9:00 AM 64.4 °F 62.6 °F 94% 30.15 in 6.2 mi Variable 1.2 mph - N/A   Partly Cloudy
9:30 AM 66.2 °F 64.4 °F 94% 30.15 in 6.2 mi Variable 1.2 mph - N/A   Partly Cloudy
10:00 AM 69.8 °F 66.2 °F 88% 30.15 in 6.2 mi Variable 1.2 mph - N/A   Partly Cloudy
10:30 AM 73.4 °F 64.4 °F 73% 30.15 in 6.2 mi Calm Calm - N/A   Partly Cloudy
11:00 AM 75.2 °F 64.4 °F 69% 30.18 in 6.2 mi SSW 5.8 mph - N/A   Partly Cloudy
11:30 AM 75.2 °F 64.4 °F 69% 30.18 in 6.2 mi SW 8.1 mph - N/A   Partly Cloudy
12:00 PM 75.2 °F 64.4 °F 69% 30.18 in 6.2 mi SW 9.2 mph - N/A   Partly Cloudy
12:30 PM 75.2 °F 62.6 °F 65% 30.18 in 6.2 mi SW 9.2 mph - N/A   Partly Cloudy
1:00 PM 75.2 °F 64.4 °F 69% 30.18 in 6.2 mi WSW 9.2 mph - N/A   Partly Cloudy
1:30 PM 77.0 °F 64.4 °F 65% 30.15 in 6.2 mi SW 6.9 mph - N/A   Partly Cloudy
2:00 PM 77 °F 60 °F 46% 30.17 in 17 mi SSW 9.2 mph - -   Scattered Clouds
2:00 PM 75.2 °F 62.6 °F 65% 30.15 in 6.2 mi SSW 8.1 mph - N/A   Partly Cloudy
2:30 PM 75.2 °F 62.6 °F 65% 30.12 in 6.2 mi SW 6.9 mph - N/A   Partly Cloudy
3:00 PM 77.0 °F 62.6 °F 61% 30.12 in 6.2 mi SSW 8.1 mph - N/A   Partly Cloudy
3:30 PM 75.2 °F 62.6 °F 65% 30.12 in 6.2 mi SW 10.4 mph - N/A   Partly Cloudy
4:00 PM 75.2 °F 62.6 °F 65% 30.12 in 6.2 mi SW 11.5 mph - N/A   Partly Cloudy
4:30 PM 77.0 °F 62.6 °F 61% 30.09 in 6.2 mi SW 10.4 mph - N/A   Partly Cloudy
5:00 PM 75.2 °F 62.6 °F 65% 30.09 in 6.2 mi SW 10.4 mph - N/A   Partly Cloudy
5:30 PM 75.2 °F 62.6 °F 65% 30.09 in 6.2 mi SSW 10.4 mph - N/A   Partly Cloudy
6:00 PM 75.2 °F 62.6 °F 65% 30.09 in 6.2 mi SSW 9.2 mph - N/A   Partly Cloudy
6:30 PM 75.2 °F 62.6 °F 65% 30.09 in 6.2 mi SW 9.2 mph - N/A   Partly Cloudy
7:00 PM 73.4 °F 62.6 °F 69% 30.09 in 6.2 mi SW 8.1 mph - N/A   Partly Cloudy
7:30 PM 73.4 °F 62.6 °F 69% 30.09 in 6.2 mi SW 5.8 mph - N/A   Partly Cloudy
8:00 PM 72 °F 61 °F 59% 30.11 in 16 mi SSW 6.9 mph - -   Scattered Clouds
8:00 PM 73.4 °F 64.4 °F 73% 30.09 in 6.2 mi SSW 3.5 mph - N/A   Partly Cloudy
8:30 PM 71.6 °F 62.6 °F 73% 30.09 in 6.2 mi SSE 2.3 mph - N/A   Partly Cloudy
9:00 PM 71.6 °F 62.6 °F 73% 30.09 in 6.2 mi SE 1.2 mph - N/A   Partly Cloudy
9:30 PM 69.8 °F 62.6 °F 78% 30.12 in 6.2 mi East 1.2 mph - N/A   Partly Cloudy
10:00 PM 66.2 °F 60.8 °F 83% 30.12 in 6.2 mi East 2.3 mph - N/A   Partly Cloudy
10:30 PM 64.4 °F 60.8 °F 88% 30.12 in 6.2 mi Variable 2.3 mph - N/A   Partly Cloudy
11:00 PM 64.4 °F 60.8 °F 88% 30.12 in 6.2 mi ENE 3.5 mph - N/A   Partly Cloudy
11:30 PM 62.6 °F 59.0 °F 88% 30.12 in 6.2 mi ENE 1.2 mph - N/A   Partly Cloudy